Aérodrome :
LOGIN :

S'inscrire | Disclaimer

   EN    FR    IT 

 










Légende :    VFR   VFR Marginal   IFR   IFR Intensif   IFR Très Intensif
Visi : 
Plafond : 
>= 8 km
>= 3000ft
5 à 8 km
1000 à 3000 ft
1500m à 5 km
500 à 1000 ft
800 à 1500m
200 à 500 ft
< 800m
< 200 ft
Symboles :   Orages  Brouillard  Fortes neiges  Fortes précipitations  Vent > 20 kt
SIGMETs :   Divers  Orages  Givrage  Turbulence  Onde Orograph.  Cendres Volcan.







- Altitude de l'aérodrome : 39 ft
- Code IATA : SUF


LICA - Lamezia Terme

DERNIER METAR :
  • 142050Z 09003KT 9999 FEW030 11/11 Q1024

METARs EXPIRÉS :
  • 141950Z VRB03KT 9999 FEW030 13/12 Q1023
  • 141850Z VRB02KT 9999 SCT030 14/12 Q1024

TAF TAF LICA
Valide du 14 à 18h jusqu'au 15 à 18h UTC


141700Z 1418/1518 07006KT 9999 SCT020
BECMG 1508/1510 27010KT
Pas de NOTAMs connus pour ce terrain.



MET'MAP, la Météo Aéronautique d'un coup d'oeil ! - Copyright ORBIFLY Décembre 2007 - Disclaimer

ORBIFLY MET'MAP TEAM :

Programmation & Développement : Alexandra Zaïnal
Conception & Développement : Baudouin d'Aumeries
Co-Programmation & Développement : Marc-Olivier Méhu
Soutien technique & logistique : Manuel Goepfert

Contact : metmap@orbifly.com




SOURCES & CREDITS :

   NOAA